Tracking 19636 objects as of 24-May-2019
HD Live streaming from Space Station
objects crossing your sky now

GAOFEN 1-03

Track GAOFEN 1-03 now!
10-day predictions


NORAD ID: 43260
Int'l Code: 2018-031B
Perigee: 643.1 km
Apogee: 652.4 km
Inclination: 98.0 °
Period: 97.5 minutes
Semi major axis: 7018 km
RCS: Unknown
Launch date: March 31, 2018
Source: People's Republic of China (PRC)
Launch site: Taiyaun Space Center, China (TSC)
aabbcc
Your satellite tracking list
Your tracking list is empty




NASA's NSSDC Master Catalog

Two Line Element Set (TLE):
1 43260U 18031B   19143.79386751  .00000060  00000-0  15972-4 0  9996
2 43260  97.9960 221.7013 0006689  84.4281 275.7689 14.76430507 61771
Source of the keplerian elements: AFSPC